Current weather by "City, St" or "zip code"  
 

Current Conditions: Fort Polk, Polk AAF Ft Polk, LA

A Few Clouds


74.0 F

Last Updated on Sep 18 2020, 1:58 am CDT
Humidity: 89%
Wind Speed: N 4.6 mph
Barometer 29.98 in
Dewpoint: 70.3 F
Visibility: 10.00 mi
Precip: --
Heat Index: NA
Wind Chill: NA
Current conditions at:

Fort Polk, Polk AAF Ft Polk, LA (KPOE)

Lat: 31.05 Lon: 93.19389

Local Radar Image active severe weather and emergency alerts image image weather storm and storm spotter reports image weather observation monitoring service image
Local
Radar
Active
Alerts
Storm Reports Obs
Monitoring

Sign-up For Email & Text Message Weather Alert Notification Services



Advertise Here

Observation History for Fort Polk, Polk AAF Ft Polk, LA


Time Wind
(mph)
Vis
(mi)
Weather Precip (in) Temperature (F) Relative
Humidity
Wind
Chill
(F)
Heat
Index
(F)
Pressure
Air Dwpt altimeter
(in)
sea level
(mb)
Rmks
1:58 am CDT N 4.6 10.00 A Few Clouds -- 74.0 70.3 89% NA NA 29.98 1015.1
12:58 am CDT N 4.6 10.00 Fair -- 75.0 70.5 86% NA NA 29.98 1015.1
11:58 pm CDT N 6.9 10.00 Mostly Cloudy -- 76.0 70.3 84% NA NA 29.98 1015.1
10:58 pm CDT N 3.5 10.00 Mostly Cloudy -- 76.0 70.3 82% NA NA 29.97 1014.8
9:58 pm CDT N 6.9 10.00 Partly Cloudy -- 77.0 71.2 82% NA NA 29.97 1014.8
8:58 pm CDT N 4.6 10.00 Mostly Cloudy -- 77.0 71.8 83% NA NA 29.95 1014.1
7:58 pm CDT N 4.6 10.00 Overcast -- 79.0 71.6 79% NA NA 29.92 1013.1
6:58 pm CDT N 6.9 9.00 Overcast -- 80.0 72.1 76% NA 84 29.92 1013.1
5:58 pm CDT N 3.5 10.00 Overcast -- 82.0 70.7 68% NA 86 29.92 1013.1
4:58 pm CDT NE 3.5 10.00 Overcast -- 83.0 70.0 64% NA 87 29.91 1012.7
3:58 pm CDT N 8.1 10.00 Mostly Cloudy -- 84.0 69.6 62% NA 88 29.92 1013.0
2:58 pm CDT N 5.8 10.00 Mostly Cloudy -- 85.0 69.4 61% NA 89 29.93 1013.4
1:58 pm CDT N 5.8 10.00 Mostly Cloudy -- 83.0 69.6 63% NA 87 29.95 1014.1
12:58 pm CDT N 8.1 9.00 Overcast -- 83.0 70.5 65% NA 87 29.96 1014.4
11:58 am CDT NE 9.2 6.00 Overcast with Haze -- 80.0 69.8 70% NA 83 29.98 1015.1
10:58 am CDT N 8.1 10.00 Overcast -- 79.0 69.8 74% NA NA 29.98 1015.1
8:58 am CDT N 6.9 10.00 Overcast -- 74.0 70.0 88% NA NA 29.96 1014.4
7:58 am CDT NE 3.5 5.00 Fog/Mist -- 73.0 70.9 92% NA NA 29.94 1013.7
6:58 am CDT N 6.9 6.00 Fog/Mist -- 73.0 71.4 94% NA NA 29.93 1013.4
5:58 am CDT N 4.6 9.00 Overcast -- 73.0 71.6 95% NA NA 29.92 1013.0
4:58 am CDT N 3.5 10.00 A Few Clouds -- 73.0 71.6 94% NA NA 29.91 1012.7
3:58 am CDT N 5.8 10.00 Overcast -- 74.0 71.6 91% NA NA 29.91 1012.7
2:58 am CDT N 5.8 10.00 Mostly Cloudy -- 76.0 71.8 88% NA NA 29.91 1012.7

Regional Weather Observation


Ft. Polk/Self Strip, LA (KDNK)

Light Rain
66.0 F

Ft. Polk - Peason Ridge, LA (KAQV)

A Few Clouds
82.0 F

Natchitoches, Natchitoches Regional Airport, LA (KIER)

Fair
71.0 F

Ft. Polk - Fullerton Landing Strip, LA (KBKB)

Fair
74.0 F

De Ridder, Beauregard Parish Airport, LA (KDRI)

Fair
74.0 F

Alexandria, Alexandria International Airport, LA (KAEX)

Fair
74.0 F